Location: Arroyo de Valdeoliva
(40.1604°N, 4.9878°W)
Time: 11:44:16
(UTC+00:00)

ARIANE 6 FM1 Upper Stage - Pass Details

Date: 17 February 2026
Orbit: 523 x 607 km, 62.0° (Epoch: 8 March)

Event Time Altitude Azimuth Distance (km) Brightness Sun altitude
Rises 20:55:34 0° 305° (NW) 2,657 7.0 -34.4°
Reaches altitude 10° 20:58:31 10° 281° (W) 1,770 6.0 -34.9°
Enters shadow 20:59:22 13° 270° (W) 1,603 5.7 -35.1°
